Location: Batesville
(34.7480°N, 83.6110°W)
Time: 21:59:40
(UTC-05:00)

Envisat - Pass Details

Date: 22 January 2018
Orbit: 764 x 766 km, 98.2° (Epoch: 22 February)

Event Time Altitude Azimuth Distance (km) Brightness Sun altitude
Exits shadow 20:54:05 11° 332° (NNW) 2,273 5.7 -36.9°
Drops below altitude 10° 20:54:15 10° 332° (NNW) 2,333 5.7 -36.9°
Sets 20:56:37 0° 340° (NNW) 3,237 6.5 -37.4°
